RH
93 96 91 91 92 90 89 88 88 89 88 87 87 86 86 86 85 84 81 80 78 76 71 70 73 68 68 70 73 74 75 77 75 71 67 66 66 67 71 68 67 56 66
95 92 92 91 91 92 89 87 87 88 88 87 86 86 86 86 85 83 79 76 75 72 68 68 68 69 70 73 74 75 74 78 77 74 70 67 66 67 68 73 78 70 71
95 94 93 93 92 91 89 87 86 86 86 86 87 87 87 85 84 80 76 75 73 72 67 68 70 71 72 74 75 73 72 72 76 73 71 69 63 70 68 71 75 73 72
92 93 91 93 91 91 90 87 85 85 86 86 87 87 86 84 81 77 77 76 76 75 71 70 71 72 73 75 76 74 72 72 73 74 71 67 60 67 67 68 73 71 72
92 95 94 94 92 90 90 89 88 86 86 87 86 86 85 82 78 77 78 77 77 76 70 70 72 75 80 81 78 77 74 73 74 74 78 76 66 65 69 73 71 71 68
93 94 95 94 92 90 90 89 88 88 87 86 86 85 83 80 78 79 78 78 77 75 74 71 72 80 84 82 81 80 78 77 80 82 76 68 68 66 67 68 67 66 66
96 93 93 93 91 88 85 85 87 89 89 87 86 85 83 80 78 79 79 78 77 75 72 70 74 85 82 83 82 82 81 77 76 76 77 76 67 66 67 67 67 66 66
96 97 96 94 91 88 83 84 86 88 88 87 86 86 84 82 80 80 80 78 78 76 79 84 85 85 83 82 82 82 81 78 75 77 77 71 66 66 67 66 66 66 66
98 96 95 97 93 88 90 89 88 89 89 90 89 88 86 86 84 82 81 82 77 78 83 86 84 82 83 83 83 84 84 81 83 75 68 70 66 65 66 65 65 65 65
97 98 98 95 98 96 94 92 89 88 88 88 90 91 92 91 88 86 84 79 77 76 80 83 83 84 84 86 86 86 88 85 88 85 83 66 65 63 63 64 64 64 64
96 98 98 97 98 98 95 93 91 86 83 84 96 94 95 92 94 88 81 79 76 77 80 84 86 86 87 88 88 89 86 92 91 90 85 71 64 62 62 63 62 62 62
95 95 96 97 96 97 98 94 91 87 83 86 92 93 85 94 94 86 84 80 79 77 81 86 86 86 82 82 83 81 86 92 94 93 86 72 64 62 62 62 62 61 61
95 96 96 97 98 97 96 97 97 96 95 94 98 93 80 90 97 93 90 82 76 73 64 71 66 66 72 69 71 74 77 83 89 89 80 74 61 60 61 61 61 60 60
97 97 97 96 98 96 96 98 96 95 95 95 95 89 88 89 97 90 81 92 76 75 73 64 64 65 63 61 60 64 69 78 86 88 86 77 66 62 61 61 60 59 60
98 98 98 96 97 97 97 98 94 92 92 92 98 90 88 87 90 90 91 86 79 83 69 61 55 58 62 63 62 62 70 78 84 88 91 81 74 64 60 61 60 58 57
98 98 97 99 97 97 99 94 96 93 88 91 95 96 93 92 91 87 80 77 78 76 68 56 52 57 61 63 66 67 67 71 80 91 93 86 80 74 66 60 61 59 56
98 96 96 96 96 95 96 96 96 97 91 92 96 95 96 95 93 84 76 74 76 81 71 57 61 60 60 57 66 69 69 70 75 88 92 89 84 80 74 69 61 54 56
97 95 93 90 94 95 97 96 96 98 96 95 95 94 93 93 88 91 86 76 80 81 67 63 61 62 63 61 64 69 72 69 70 79 91 90 87 79 75 73 66 55 54
94 93 94 93 93 90 91 94 96 94 93 94 94 93 90 88 87 85 89 82 83 84 73 63 71 65 64 62 58 63 67 70 72 68 82 85 84 86 87 81 72 66 59
95 94 95 94 92 94 94 94 96 95 95 91 91 90 86 88 87 91 91 88 86 88 85 73 68 70 66 65 47 57 67 64 64 79 78 73 77 82 81 86 79 72 67
95 94 95 96 94 89 92 92 96 93 94 96 86 84 85 86 85 86 89 91 90 83 82 74 73 71 73 74 73 75 76 73 69 66 77 78 73 72 78 76 77 70 70
94 92 92 95 94 80 86 85 92 89 86 94 92 90 87 92 89 86 84 92 89 87 86 79 73 77 76 80 75 79 74 74 80 74 69 70 73 66 72 70 74 69 64
94 92 88 89 92 84 81 84 84 85 89 85 92 92 89 88 95 91 89 91 91 88 84 79 80 73 78 84 81 75 83 79 81 76 78 73 71 73 70 69 69 66 65
92 85 84 85 89 83 77 77 81 76 73 57 81 83 88 90 90 94 95 94 92 90 89 83 83 83 78 78 86 80 77 75 73 71 70 71 78 74 75 74 70 68 67
86 86 84 86 82 77 76 75 74 76 70 82 84 84 89 89 90 92 94 96 96 88 84 84 83 83 88 79 78 83 75 74 74 72 71 66 66 68 74 75 76 75 71
79 88 93 88 89 85 84 84 79 74 80 83 87 93 96 95 95 94 95 94 91 92 91 91 88 86 84 85 73 79 77 73 75 70 71 70 66 64 61 60 72 69 64
Wind_Speed
4 7 14 18 19 19 17 25 29 33 28 24 25 25 23 23 23 22 23 24 25 24 25 25 23 24 25 25 24 23 22 22 20 22 23 22 22 22 21 19 19 17 22
5 7 13 13 10 14 14 17 23 28 28 30 24 25 24 23 23 22 23 25 26 27 28 26 25 25 25 24 23 23 23 21 20 20 21 22 22 22 21 21 20 19 23
9 12 10 10 13 12 15 18 23 26 29 27 25 23 24 23 23 22 24 25 26 26 27 27 26 26 25 23 22 23 23 22 20 21 17 8 13 22 21 19 20 23 23
8 11 13 19 17 15 15 16 21 24 27 25 23 23 23 23 21 23 24 25 27 28 28 26 26 24 23 22 20 22 22 21 19 16 8 9 12 22 21 21 23 23 23
4 11 13 21 21 23 20 17 20 20 21 28 22 23 21 22 21 22 24 25 25 26 27 25 23 20 21 19 20 22 23 22 20 13 8 6 10 17 20 21 21 22 20
5 4 17 20 24 25 24 24 20 20 15 22 25 22 21 22 22 22 23 24 25 24 23 21 20 20 22 20 19 20 20 19 15 7 8 13 10 21 21 22 21 22 21
6 5 13 17 21 24 27 28 28 26 22 18 22 24 23 20 20 21 22 22 23 22 20 17 18 21 21 20 20 19 18 18 10 9 8 6 12 21 21 22 22 22 22
2 5 5 19 13 15 18 23 26 25 26 25 22 23 23 20 19 20 21 21 20 19 18 16 22 23 22 20 20 18 17 16 11 9 7 7 19 21 22 21 22 22 22
1 4 5 6 9 12 10 16 23 25 22 16 18 26 21 18 17 19 21 22 20 18 19 22 24 23 21 20 18 16 16 16 8 6 8 5 19 20 21 21 21 21 21
3 1 3 4 1 3 5 11 19 22 20 16 15 20 17 15 15 18 20 21 20 18 19 22 22 21 19 18 18 17 15 14 8 7 5 7 17 19 20 20 20 20 20
1 3 2 1 4 3 8 11 16 21 21 18 9 19 16 10 10 14 17 21 19 16 17 20 21 20 18 15 16 16 13 4 5 5 4 14 16 18 18 18 19 19 19
1 2 4 5 5 5 6 11 15 15 12 12 9 12 11 10 8 9 15 19 18 15 17 20 20 19 14 6 7 12 5 4 3 5 4 15 16 17 16 17 17 17 17
2 1 4 4 4 8 8 11 9 8 8 6 7 10 11 8 5 5 7 8 8 11 7 10 9 5 8 5 4 6 6 5 2 3 7 14 15 15 15 15 15 16 15
5 1 1 4 7 14 12 12 16 13 11 10 8 12 9 7 5 6 5 5 6 4 6 5 5 5 6 5 8 7 6 4 3 2 4 12 11 15 14 14 13 13 13
3 2 1 4 7 8 15 16 16 14 14 12 6 10 9 9 8 6 5 5 6 4 7 5 7 6 6 6 6 7 6 5 6 3 2 11 11 12 13 14 12 11 11
4 3 1 4 6 8 8 18 13 10 14 11 7 6 8 8 8 7 8 7 6 5 5 7 8 6 5 5 6 5 6 5 6 5 3 4 11 10 12 12 11 10 9
3 4 4 5 5 11 14 14 11 7 9 10 8 9 9 8 7 8 7 8 9 4 6 7 5 6 5 4 5 4 4 5 5 5 4 3 5 8 9 10 11 9 9
5 5 5 5 7 9 10 10 9 6 6 7 6 7 10 9 8 6 4 6 9 5 5 6 6 6 5 4 4 3 3 4 5 5 4 3 3 2 6 9 9 9 9
6 6 6 7 8 9 10 8 5 6 6 6 6 6 9 10 7 7 5 5 9 5 5 6 2 6 4 4 4 4 4 4 5 4 5 5 4 3 3 8 10 9 9
6 7 6 5 9 11 9 8 5 5 4 6 6 6 9 5 8 6 5 5 8 5 4 4 5 3 3 4 3 2 0 1 3 4 5 3 4 5 4 5 4 5 10
8 9 7 7 10 10 9 10 5 5 5 3 7 10 11 8 8 7 5 5 5 7 7 6 4 5 2 3 4 1 0 2 3 4 4 4 6 5 4 4 3 3 4
9 9 9 8 8 10 8 6 3 3 3 3 3 5 5 5 8 9 8 7 7 5 6 6 5 3 2 5 4 2 1 2 3 5 4 5 6 3 5 6 5 5 4
8 10 10 10 9 8 9 7 5 5 3 2 3 4 2 5 6 7 8 8 7 6 7 7 6 7 5 4 5 5 3 6 1 1 4 4 5 4 4 4 5 5 6
8 8 10 10 9 8 10 8 9 9 10 7 4 4 4 6 7 6 7 7 7 6 6 7 6 5 5 6 1 2 1 3 4 1 2 3 4 5 5 4 5 5 6
10 9 9 10 10 10 11 11 9 8 6 3 3 5 6 7 6 6 7 7 7 7 8 9 7 7 4 4 5 4 2 1 2 3 3 2 2 2 3 4 4 4 5
11 10 9 10 10 9 9 9 10 11 7 6 5 5 4 3 4 7 8 8 9 8 7 9 10 11 10 4 5 4 4 5 3 2 2 1 3 2 2 3 3 4 4
Wind_Direction
212 163 147 156 167 143 137 136 134 132 131 130 132 133 134 128 125 124 123 120 116 116 117 115 110 109 106 104 101 97 91 86 86 89 87 86 86 84 82 84 86 83 81
201 164 156 156 144 132 133 129 131 127 128 132 136 137 130 130 127 128 126 125 122 123 121 118 114 113 107 107 105 103 95 90 89 88 87 89 88 87 84 75 76 84 82
150 142 127 135 128 131 129 137 132 129 129 132 135 134 134 133 130 132 129 125 123 121 121 121 120 114 113 112 111 107 101 98 95 92 87 82 86 87 85 80 79 78 79
148 144 140 141 144 139 131 135 132 131 131 130 136 135 136 131 133 134 132 130 128 127 127 124 117 114 118 118 114 108 105 101 96 88 74 72 83 88 87 85 80 77 76
138 142 152 146 149 142 141 136 125 128 137 133 137 135 134 135 139 138 135 133 131 131 131 129 126 120 129 120 115 110 109 105 99 89 80 75 87 89 86 81 78 79 78
191 157 161 158 157 147 143 139 132 128 139 134 138 137 140 143 143 141 138 137 134 130 127 131 133 129 125 119 116 110 109 107 96 84 82 93 91 92 90 87 85 82 78
187 202 176 164 159 155 156 153 146 141 142 146 146 145 142 147 146 142 140 134 129 126 129 136 137 129 124 121 119 116 113 109 100 93 84 80 93 93 91 89 88 87 85
211 254 257 147 205 174 168 151 142 140 147 154 152 142 143 150 146 142 135 129 125 124 123 130 137 133 128 127 123 119 114 108 100 96 90 92 99 97 94 91 88 87 85
265 217 195 158 183 175 179 157 140 136 138 153 150 139 147 148 144 138 132 127 128 124 125 129 132 129 130 126 122 120 114 111 98 100 95 90 102 98 97 93 91 89 88
87 236 339 79 216 216 195 159 142 137 142 159 158 143 134 139 136 135 129 129 128 126 128 131 130 126 124 128 127 118 110 106 97 101 91 103 105 101 99 98 95 94 93
164 206 198 172 204 208 208 161 133 137 146 152 152 132 138 135 130 134 136 131 129 127 123 127 128 126 122 120 116 111 105 97 109 105 102 108 108 106 105 104 103 101 97
335 276 241 221 205 197 221 168 146 147 153 156 145 152 149 132 143 140 132 126 129 120 116 126 125 120 115 113 113 110 102 108 114 114 116 117 114 112 112 112 111 106 103
140 206 262 246 227 202 211 172 156 144 141 140 157 166 149 136 131 123 118 118 128 116 112 118 113 108 112 123 128 106 107 116 145 98 126 124 121 119 121 119 118 114 109
164 145 282 260 254 239 203 199 148 140 145 159 190 167 152 141 136 131 125 121 122 121 112 102 104 97 95 137 108 99 105 120 100 85 127 125 128 130 128 124 120 119 118
163 115 337 322 304 261 160 148 140 151 150 170 155 163 153 150 147 133 123 120 125 123 123 124 119 123 137 120 111 119 130 125 117 121 114 135 144 141 138 133 130 126 124
147 127 105 25 5 67 82 115 117 149 146 148 155 147 144 148 149 149 143 136 122 137 139 147 130 136 120 123 119 138 141 130 124 129 144 151 151 153 146 144 144 143 134
131 116 106 77 48 93 101 106 116 118 149 144 157 149 159 133 153 147 155 153 135 131 136 120 107 117 99 99 126 138 141 136 126 133 130 132 139 144 153 153 158 153 151
119 124 123 118 88 94 106 119 127 118 128 127 143 158 143 148 138 124 140 170 123 141 159 128 144 109 126 140 139 169 156 138 139 143 142 141 150 148 150 143 158 160 159
127 119 113 134 123 115 116 115 101 119 121 139 136 143 139 144 131 149 150 155 140 148 157 140 129 117 148 151 153 158 181 152 155 150 168 168 176 170 170 177 173 169 168
108 107 97 126 129 120 116 127 95 92 138 141 137 144 138 120 129 134 126 180 134 135 138 137 140 95 149 151 122 132 344 145 148 186 190 171 191 192 194 204 190 188 185
130 128 124 134 143 141 137 141 138 144 131 132 158 154 127 152 157 153 158 153 139 167 177 162 116 147 126 143 106 35 292 225 212 212 200 197 200 204 207 214 208 202 212
146 149 147 134 148 143 137 122 93 111 91 108 78 91 131 134 177 182 157 177 167 165 169 170 154 141 128 176 142 117 235 309 244 212 206 211 209 194 210 216 211 211 216
163 161 159 154 150 146 134 112 115 92 74 168 91 75 167 182 201 168 177 173 175 170 185 186 182 165 156 203 204 146 133 224 147 79 234 218 203 204 216 214 222 217 208
175 173 167 163 161 151 151 142 165 172 168 180 157 152 200 185 206 169 176 178 175 184 178 190 194 189 156 172 215 209 49 138 178 291 280 237 216 219 212 214 210 218 212
176 179 176 170 175 172 171 179 170 170 183 154 159 177 202 194 189 193 191 182 180 193 199 192 193 205 209 166 167 146 140 104 110 137 194 283 298 242 245 225 212 212 214
182 169 180 180 191 186 185 176 178 175 171 182 196 202 210 222 202 193 195 193 197 197 195 197 204 207 209 207 189 168 169 164 173 155 73 181 181 208 208 231 204 206 195